Location: Bazugues
(43.4465°N, 0.3432°E)
Time: 08:46:09
(UTC+00:00)

RESURS DK-1 - Visible Passes

Search period start: 10 April 2026 00:00
Search period end: 20 April 2026 00:00
Orbit: 526 x 529 km, 69.9° (Epoch: 9 April)

Date Brightness Start Highest point End Pass type
(mag) Time Alt. Az. Time Alt. Az. Time Alt. Az.
12 Apr 5.3 22:17:45 11° NNE 22:17:45 11° NNE 22:17:53 10° NNE visible
13 Apr 5.0 22:05:13 15° N 22:05:13 15° N 22:06:00 10° NNE visible
14 Apr 4.4 21:52:24 23° N 21:52:24 23° N 21:54:07 10° NNE visible
15 Apr 4.6 20:04:00 10° ENE 20:04:00 10° ENE 20:04:03 10° ENE visible
15 Apr 3.7 21:39:06 37° NNW 21:39:06 37° NNW 21:42:12 10° NNE visible
16 Apr 3.7 19:49:40 18° ESE 19:49:40 18° ESE 19:52:16 10° ENE visible
16 Apr 3.6 21:24:37 22° WSW 21:26:35 38° WNW 21:30:18 10° NNE visible
17 Apr 3.6 19:34:49 10° SSE 19:37:38 19° ESE 19:40:28 10° ENE visible
17 Apr 3.8 21:11:04 10° SW 21:14:43 36° WNW 21:18:24 10° N visible
18 Apr 3.5 19:22:49 10° SSE 19:25:44 20° ESE 19:28:40 10° ENE visible
18 Apr 3.9 20:59:14 10° WSW 21:02:50 34° WNW 21:06:29 10° N visible
19 Apr 4.1 20:47:24 10° WSW 20:50:58 32° WNW 20:54:34 10° N visible
